Regional Weather Roundup
Issued by NWS

Home | Current Version | Previous Version | Graphics & Text | Print | Product List | Glossary On
Versions: 1 2 3 4 5 6 7 8 9 10 11 12 13 14 15 16 17 18 19 20 21 22 23 24 25 26 27 28 29 30 31 32 33 34 35 36 37 38 39 40 41 42 43 44 45 46 47 48 49 50
355
ASUS43 KOAX 240910
RWRNE

WEATHER ROUNDUP FOR NEBRASKA
NATIONAL WEATHER SERVICE OMAHA NE
400 AM CDT WED AUG 24 2016

NOTES: SATELLITE DATA IS BEING USED TO AUGMENT CLOUD COVER ABOVE
       12000 FEET.
       "FAIR" INDICATES FEW OR NO CLOUDS BELOW 12,000 FEET WITH NO
       SIGNIFICANT WEATHER AND/OR OBSTRUCTIONS TO VISIBILITY.

  * THESE STATIONS DO NOT REPORT WEATHER SUCH AS RAIN...SNOW OR FOG.

NEZ001>004-019>022-054>056-241000-
NEBRASKA PANHANDLE

CITY           SKY/WX    TMP DP  RH WIND       PRES   REMARKS
SCOTTSBLUFF    MOCLDY    60  40  47 E10       30.12R
ALLIANCE       PTCLDY    49  44  83 CALM      30.12R
CHADRON        CLOUDY    45  34  65 CALM      30.11R
KIMBALL        CLOUDY    61  44  54 SE9       30.16S
SIDNEY         CLOUDY    58  46  64 CALM      30.15R
$$

NEZ057>060-069>072-079>082-241000-
SOUTHWEST NEBRASKA

CITY           SKY/WX    TMP DP  RH WIND       PRES   REMARKS
NORTH PLATTE   PTCLDY    55  48  77 CALM      30.06S
IMPERIAL       CLOUDY    63  43  48 NE10      30.06S
LEXINGTON      PTCLDY    57  51  80 NW9       30.00R
MCCOOK         MOCLDY    63  48  58 N9        30.01R
OGALLALA       CLOUDY    66  34  30 NE8       30.08S
$$

NEZ005>010-023>029-035>040-094-241000-
NORTH CENTRAL NEBRASKA

CITY           SKY/WX    TMP DP  RH WIND       PRES   REMARKS
VALENTINE      CLEAR     52  40  63 NW10      30.06R
AINSWORTH      CLEAR     51  46  83 W7        30.06R
BROKEN BOW     CLOUDY    54  49  83 N8        30.02R
O`NEILL        CLEAR     59  49  69 NW7       30.01R
ORD            CLOUDY    59  50  72 NW8       29.98R
THEDFORD       CLEAR     50  42  74 CALM      30.08S
$$

NEZ041-046>049-061>064-073>077-083>087-241000-
SOUTH CENTRAL NEBRASKA

CITY           SKY/WX    TMP DP  RH WIND       PRES   REMARKS
GRAND ISLAND   MOCLDY    63  58  83 NE3       29.96R
AURORA         PTCLDY    66  66 100 E8        29.96R
HASTINGS       CLOUDY    65  58  78 N8        29.95R
HEBRON         PTCLDY    70  68  92 E6        29.91S
HOLDREGE       PTCLDY    62  54  74 N6        29.97R
KEARNEY *      MOCLDY   N/A N/A N/A N10       29.95S
YORK           MOCLDY    66  64  94 SE8       29.95R
$$

NEZ011>018-030>034-042>045-241000-
NORTHEAST NEBRASKA

CITY           SKY/WX    TMP DP  RH WIND       PRES   REMARKS
NORFOLK        CLEAR     66  57  72 W10       29.92R
ALBION         CLEAR     61  56  83 CALM      29.96R
BLAIR          CLOUDY    67  65  94 SW3       29.92R
FREMONT        CLOUDY    67  66  94 CALM      29.93R
TEKAMAH        CLOUDY    68  65  90 S7        29.90R
WAYNE          CLEAR     67  64  90 W3        29.92R
$$

NEZ050>053-065>068-078-088>093-241000-
SOUTHEAST NEBRASKA

CITY           SKY/WX    TMP DP  RH WIND       PRES   REMARKS
LINCOLN        PTCLDY    67  63  87 S10       29.91F
OMAHA EPPLEY   CLOUDY    68  63  84 NE3       29.89S
BEATRICE       CLOUDY    67  63  85 SE8       29.93F
FALLS CITY     CLOUDY    67  64  90 S14       29.92F
NEBRASKA CITY  CLOUDY    65  65 100 CALM      29.90F
PLATTSMOUTH    CLOUDY    65  64  96 CALM      29.90S
$$

NEZ044-045-051>053-067-241000-
OMAHA AREA

CITY           SKY/WX    TMP DP  RH WIND       PRES   REMARKS
OMAHA EPPLEY   CLOUDY    68  63  84 NE3       29.89S
BLAIR          CLOUDY    67  65  94 SW3       29.92R
FREMONT        CLOUDY    67  66  94 CALM      29.93R
MILLARD        CLOUDY    66  64  94 CALM      29.91R
OFFUTT AFB     MOCLDY    66  66 100 E3        29.89R
PLATTSMOUTH    CLOUDY    65  64  96 CALM      29.90S
WAHOO          CLOUDY    67  64  91 CALM      29.92R
$$




USA.gov is the U.S. government's official web portal to all federal, state and local government web resources and services.